Weather reports worldwide

Advertisment
Lake Vyrnwy, United Kingdom (3410): temperature & dewpoint: 13.02.2020 13:00:00 - 19.02.2020 13:00:00 (GMT)Lake Vyrnwy, United Kingdom (3410): temperature -20cm & temperature -100cm: 13.02.2020 13:00:00 - 19.02.2020 13:00:00 (GMT)Lake Vyrnwy, United Kingdom (3410): wind speed & gusts: 13.02.2020 13:00:00 - 19.02.2020 13:00:00 (GMT)Lake Vyrnwy, United Kingdom (3410): wind direction: 13.02.2020 13:00:00 - 19.02.2020 13:00:00 (GMT)Lake Vyrnwy, United Kingdom (3410): reduced air pressure: 13.02.2020 13:00:00 - 19.02.2020 13:00:00 (GMT)Lake Vyrnwy, United Kingdom (3410): visibility: 13.02.2020 13:00:00 - 19.02.2020 13:00:00 (GMT)Lake Vyrnwy, United Kingdom (3410): sunshine duration: 13.02.2020 13:00:00 - 19.02.2020 13:00:00 (GMT)Lake Vyrnwy, United Kingdom (3410): precipitation: 13.02.2020 13:00:00 - 19.02.2020 13:00:00 (GMT)
Date & Time tt [°C] td [°C] tt -20cm [°C] tt -100cm [°C] ff [km/h] ff [kn] fx [km/h] fx [kn] dd ppp [hPa] vv [km] sd [min] rr [mm]
19.02.2020 13:00:00 - - - - - - - - - - - - -
19.02.2020 12:00:00 4,9 4,6 - - 26 14 - - SSW 1016,2 5 0 1,2
19.02.2020 11:00:00 3,8 3,5 - - 22 12 - - SSW 1017,3 9 0 0,6
19.02.2020 10:00:00 3,1 2,1 - - 22 12 - - SW 1018,0 6 0 0,2
19.02.2020 09:00:00 3,6 1,3 4,7 5,7 11 6 - - SSW 1018,2 23 0 0,0
19.02.2020 08:00:00 2,7 0,5 - - 18 10 - - WSW 1018,1 25 0 0,0
19.02.2020 07:00:00 2,5 0,0 - - 26 14 - - WSW 1018,1 26 0 0,0
19.02.2020 06:00:00 2,4 -0,2 - - 28 15 - - WSW 1018,4 28 0 -
19.02.2020 05:00:00 2,2 -0,3 - - 24 13 - - W 1018,5 29 0 -
19.02.2020 04:00:00 2,1 -0,5 - - 29 16 48 26 W 1018,0 29 0 0,0
19.02.2020 03:00:00 2,3 -0,3 - - 31 17 50 27 W 1017,9 28 0 0,0
19.02.2020 02:00:00 2,0 -0,6 - - 29 16 55 30 W 1017,9 30 0 0,0
19.02.2020 01:00:00 2,1 -0,5 - - 31 17 48 26 W 1017,3 11 0 0,0
19.02.2020 00:00:00 2,0 -1,0 - - 31 17 54 29 W 1016,7 30 - 0,2
18.02.2020 23:00:00 2,4 -0,2 - - 34 18 48 26 W 1015,5 17 0 0,2
18.02.2020 22:00:00 2,1 -0,2 - - 28 15 48 26 W 1015,4 30 0 0,8
18.02.2020 21:00:00 2,5 -0,6 - - 34 18 54 29 W 1014,7 40 0 0,0
18.02.2020 20:00:00 3,1 0,4 - - 29 16 50 27 W 1013,7 19 0 0,2
18.02.2020 19:00:00 3,8 1,1 - - 35 19 59 32 WSW 1012,6 40 0 0,0
18.02.2020 18:00:00 4,1 1,4 - - 42 23 63 34 WSW 1011,3 30 0 0,0
18.02.2020 17:00:00 4,0 1,3 - - 42 23 63 34 WSW 1011,1 30 0 0,0
18.02.2020 16:00:00 4,4 2,2 - - 46 25 76 41 WSW 1011,2 55 0 2,0
18.02.2020 15:00:00 5,4 3,7 - - 54 29 89 48 SW 1010,5 15 0 0,8
18.02.2020 14:00:00 5,2 4,0 - - 50 27 76 41 SW 1011,4 8 0 1,2
18.02.2020 13:00:00 5,5 3,2 - - 59 32 81 44 SW 1012,1 6 6 0,2
18.02.2020 12:00:00 6,6 3,4 - - 59 32 74 40 WSW 1012,4 35 36 0,0
18.02.2020 11:00:00 6,1 3,5 - - 42 23 61 33 SW 1013,7 27 12 0,0
18.02.2020 10:00:00 4,8 3,3 - - 31 17 67 36 WSW 1014,4 29 6 -
18.02.2020 09:00:00 3,9 3,0 5,0 5,7 35 19 67 36 WSW 1014,5 1,0 0 3,2
18.02.2020 08:00:00 4,2 3,0 - - 39 21 61 33 WSW 1014,2 3,7 0 2,2
18.02.2020 07:00:00 3,7 2,1 - - 39 21 70 38 SW 1014,4 28 0 0,8
18.02.2020 06:00:00 3,3 1,2 - - 37 20 59 32 WSW 1015,1 8 0 -
18.02.2020 05:00:00 3,4 0,3 - - 28 15 - - WSW 1015,3 30 0 0,0
18.02.2020 04:00:00 3,1 0,4 - - 28 15 52 28 WSW 1014,9 30 0 0,2
18.02.2020 03:00:00 3,0 1,1 - - 37 20 55 30 WSW 1014,8 10 0 0,0
18.02.2020 02:00:00 3,2 -0,2 - - 29 16 55 30 WSW 1015,0 30 0 0,0
18.02.2020 01:00:00 3,3 -0,2 - - 35 19 61 33 WSW 1014,7 30 0 0,0
18.02.2020 00:00:00 2,9 -0,5 - - 29 16 59 32 WSW 1014,7 35 - -
17.02.2020 23:00:00 2,9 -0,7 - - 31 17 59 32 WSW 1014,1 30 0 0,0
17.02.2020 22:00:00 3,2 -1,0 - - 39 21 65 35 WSW 1013,3 35 0 0,0
17.02.2020 21:00:00 3,1 -0,6 - - 35 19 65 35 WSW 1012,7 30 0 0,0
17.02.2020 20:00:00 3,0 -1,3 - - 37 20 61 33 WSW 1011,7 30 0 0,0
17.02.2020 19:00:00 3,0 -0,6 - - 48 26 78 42 WSW 1011,0 27 0 0,0
17.02.2020 18:00:00 3,3 -1,6 - - 54 29 72 39 WSW 1009,6 35 0 0,0
17.02.2020 17:00:00 2,5 1,0 - - 37 20 67 36 WSW 1009,1 40 0 1,6
17.02.2020 16:00:00 4,7 2,4 - - 34 18 63 34 WSW 1007,8 30 0 0,4
17.02.2020 15:00:00 5,6 1,7 - - 37 20 61 33 WSW 1006,9 30 0 0,0
17.02.2020 14:00:00 5,7 2,4 - - 39 21 65 35 WSW 1006,0 28 0 0,0
17.02.2020 13:00:00 5,6 3,2 - - 41 22 70 38 WSW 1005,3 27 24 0,0
17.02.2020 12:00:00 6,5 3,4 - - 44 24 74 40 WSW 1003,7 22 18 0,0
17.02.2020 11:00:00 5,6 2,7 - - 50 27 72 39 WSW 1002,6 24 0 0,0
17.02.2020 10:00:00 5,4 2,7 - - 46 25 67 36 WSW 1001,6 26 0 0,0
17.02.2020 09:00:00 4,7 3,2 5,2 5,7 31 17 57 31 WSW 1000,6 24 0 0,2
17.02.2020 08:00:00 4,6 3,6 - - 39 21 63 34 SW 999,4 14 0 1,6
17.02.2020 07:00:00 3,4 2,9 - - 35 19 67 36 SW 999,0 2,3 0 1,2
17.02.2020 06:00:00 2,4 1,8 - - 42 23 61 33 SW 999,1 17 0 1,2
17.02.2020 05:00:00 3,2 1,6 - - 39 21 72 39 SW 999,0 16 0 0,2
17.02.2020 04:00:00 3,4 1,7 - - 44 24 87 47 SW 998,5 17 0 0,4
17.02.2020 03:00:00 3,8 1,5 - - 37 20 94 51 SW 998,0 20 0 0,0
17.02.2020 02:00:00 3,0 2,0 - - 54 29 93 50 SW 997,6 18 0 0,2
17.02.2020 01:00:00 3,3 0,4 - - 50 27 96 52 SW 997,0 30 0 0,0
17.02.2020 00:00:00 3,9 0,2 - - 74 40 102 55 SW 995,1 19 - 0,0
16.02.2020 23:00:00 4,1 -0,3 - - 67 36 100 54 SW 995,2 16 0 0,0
16.02.2020 22:00:00 3,5 0,9 - - 48 26 87 47 SW 995,1 15 0 0,0
16.02.2020 21:00:00 4,0 0,1 - - 48 26 85 46 SW 994,0 30 0 0,0
16.02.2020 20:00:00 3,6 1,6 - - 46 25 70 38 SW 993,0 20 0 0,6
16.02.2020 19:00:00 3,4 1,6 - - 46 25 96 52 SW 991,5 17 0 0,4
16.02.2020 18:00:00 2,4 0,8 - - 76 41 119 64 SW 990,3 1,6 0 0,6
16.02.2020 17:00:00 4,9 1,9 - - 44 24 80 43 SW 989,4 14 0 0,0
16.02.2020 16:00:00 4,9 2,7 - - 41 22 78 42 SW 988,9 13 0 0,0
16.02.2020 15:00:00 4,4 2,4 - - 44 24 68 37 SW 988,0 17 6 0,4
16.02.2020 14:00:00 1,5 0,4 - - 52 28 93 50 WSW 988,5 1,1 0 1,8
16.02.2020 13:00:00 4,6 3,0 - - 46 25 85 46 SW 985,8 3,2 0 1,2
16.02.2020 12:00:00 5,2 3,5 - - 48 26 81 44 SW 986,5 17 0 1,2
16.02.2020 11:00:00 4,9 4,0 - - 35 19 59 32 SW 987,0 14 0 0,2
16.02.2020 10:00:00 4,5 3,6 - - 28 15 63 34 SW 987,1 11 0 0,4
16.02.2020 09:00:00 4,1 2,6 6,0 5,7 37 20 81 44 WSW 986,6 12 0 1,0
16.02.2020 08:00:00 6,1 4,0 - - 57 31 87 47 SW 984,7 2,7 0 0,0
16.02.2020 07:00:00 5,8 4,4 - - 48 26 80 43 SW 984,5 15 0 0,0
16.02.2020 06:00:00 5,0 3,5 - - 59 32 96 52 SW 984,2 25 0 3,8
16.02.2020 05:00:00 5,7 4,7 - - 61 33 104 56 SW 983,5 1,6 0 4,6
16.02.2020 04:00:00 6,5 6,1 - - 35 19 76 41 SW 983,6 2,7 0 4,8
16.02.2020 03:00:00 6,6 6,1 - - 31 17 74 40 SW 984,3 1,3 0 5,8
16.02.2020 02:00:00 7,5 7,0 - - 42 23 78 42 SW 984,4 2,1 0 4,4
16.02.2020 01:00:00 7,7 6,6 - - 42 23 83 45 SW 984,6 3,0 0 4,2
16.02.2020 00:00:00 8,0 6,8 - - 50 27 76 41 SW 985,5 1,9 - 5,4
15.02.2020 23:00:00 8,2 7,8 - - 35 19 63 34 SW 986,4 1,5 0 5,8
15.02.2020 22:00:00 8,5 7,5 - - 52 28 81 44 SW 987,3 1,4 0 4,4
15.02.2020 21:00:00 8,6 7,8 - - 57 31 94 51 SW 987,9 2,1 0 1,6
15.02.2020 20:00:00 8,4 7,6 - - 61 33 98 53 SW 988,0 8 0 1,0
15.02.2020 19:00:00 9,2 8,6 - - 74 40 113 61 SW 986,4 1,6 0 4,6
15.02.2020 18:00:00 10,1 9,7 - - 61 33 102 55 SSW 984,4 1,3 0 2,2
15.02.2020 17:00:00 10,0 9,4 - - 61 33 93 50 SSW 984,4 2,3 0 3,2
15.02.2020 16:00:00 9,5 9,0 - - 61 33 94 51 SSW 985,8 1,3 0 1,8
15.02.2020 15:00:00 9,7 8,8 - - 55 30 83 45 SSW 988,1 4,3 0 2,8
15.02.2020 14:00:00 8,8 8,2 - - 52 28 96 52 SSW 990,8 3,9 0 3,0
15.02.2020 13:00:00 9,2 8,2 - - 54 29 106 57 SSW 992,0 2,4 0 0,8
15.02.2020 12:00:00 8,8 7,8 - - 48 26 94 51 SSW 994,0 3,3 0 2,0
15.02.2020 11:00:00 9,1 8,1 - - 50 27 94 51 SSW 995,6 2,7 0 2,4
15.02.2020 10:00:00 9,6 8,6 - - 55 30 85 46 SSW 996,5 5 0 2,8
15.02.2020 09:00:00 8,9 8,6 4,7 5,5 37 20 59 32 S 997,8 6 0 1,4
15.02.2020 08:00:00 8,8 7,9 - - 37 20 52 28 SSW 999,5 12 0 0,4
15.02.2020 07:00:00 6,8 6,5 - - 18 10 - - S 1001,9 75 0 0,0
15.02.2020 06:00:00 6,4 5,7 - - 21 11 - - S 1003,5 21 0 0,0
15.02.2020 05:00:00 5,2 4,7 - - 15 8 - - S 1005,2 8 0 0,0
15.02.2020 04:00:00 4,6 4,0 - - 13 7 - - S 1006,8 8 0 0,0
15.02.2020 03:00:00 4,7 4,0 - - 11 6 - - SSE 1008,4 10 0 0,0
15.02.2020 02:00:00 4,6 4,0 - - 15 8 - - S 1009,5 11 0 0,0
15.02.2020 01:00:00 5,1 4,3 - - 4 2 - - SE 1010,3 8 0 0,0
15.02.2020 00:00:00 5,7 4,8 - - 8 4 76 41 SSW 1011,0 9 - 0,0
14.02.2020 23:00:00 6,0 5,1 - - 22 12 - - SW 1011,0 8 0 0,0
14.02.2020 22:00:00 6,5 5,3 - - 28 15 50 27 SW 1011,6 9 0 0,0
14.02.2020 21:00:00 6,8 5,5 - - 35 19 50 27 SW 1010,8 9 0 0,0
14.02.2020 20:00:00 7,0 5,7 - - 37 20 57 31 SW 1010,9 10 0 0,0
14.02.2020 19:00:00 7,3 6,1 - - 46 25 65 35 SW 1010,6 9 0 0,0
14.02.2020 18:00:00 7,2 5,9 - - 35 19 65 35 SW 1010,5 11 0 0,0
14.02.2020 17:00:00 7,6 6,3 - - 37 20 57 31 SW 1009,9 12 0 0,0
14.02.2020 16:00:00 7,3 6,5 - - 35 19 59 32 SW 1009,9 12 0 0,0
14.02.2020 15:00:00 7,2 6,4 - - 39 21 72 39 SW 1010,2 19 0 2,0
14.02.2020 14:00:00 8,6 8,1 - - 34 18 57 31 SW 1009,7 2,8 0 4,6
14.02.2020 13:00:00 7,9 7,6 - - 31 17 72 39 SSW 1009,3 1,3 0 3,2
14.02.2020 12:00:00 8,0 6,5 - - 46 25 70 38 SSW 1009,0 9 0 0,0
14.02.2020 11:00:00 7,7 6,3 - - 39 21 63 34 SSW 1009,3 35 0 0,0
14.02.2020 10:00:00 6,0 4,7 - - 31 17 50 27 S 1010,9 7 0 0,0
14.02.2020 09:00:00 4,5 3,0 4,4 5,5 26 14 48 26 S 1012,0 24 0 0,0
14.02.2020 08:00:00 2,4 1,4 - - 22 12 - - S 1012,4 40 0 0,0
14.02.2020 07:00:00 1,7 0,9 - - 9 5 - - SSW 1012,9 30 0 0,0
14.02.2020 06:00:00 2,0 1,2 - - 13 7 - - SW 1013,1 35 0 0,0
14.02.2020 05:00:00 2,9 1,6 - - 11 6 - - S 1013,2 40 0 0,0
14.02.2020 04:00:00 3,4 1,9 - - 15 8 - - SW 1013,1 50 0 0,0
14.02.2020 03:00:00 3,2 2,3 - - 16 9 - - SSW 1012,9 50 0 0,0
14.02.2020 02:00:00 2,3 1,4 - - 4 2 - - S 1013,5 50 0 0,0
14.02.2020 01:00:00 2,1 1,5 - - 9 5 - - SW 1012,8 65 0 0,0
14.02.2020 00:00:00 2,8 1,8 - - 9 5 - - WSW 1011,9 70 - 0,0
13.02.2020 23:00:00 2,3 1,1 - - 8 4 - - W 1011,2 55 0 0,0
13.02.2020 22:00:00 3,8 2,3 - - 8 4 - - NW 1010,3 75 0 0,0
13.02.2020 21:00:00 3,9 2,3 - - 4 2 - - SW 1009,0 70 0 0,0
13.02.2020 20:00:00 3,8 2,5 - - 9 5 - - NW 1007,0 65 0 0,0
13.02.2020 19:00:00 3,8 2,3 - - 22 12 - - W 1005,2 70 0 0,0
13.02.2020 18:00:00 3,6 2,2 - - 9 5 - - W 1003,0 65 0 0,0
13.02.2020 17:00:00 4,0 2,3 - - 18 10 - - W 1000,8 60 0 0,0
13.02.2020 16:00:00 4,5 3,0 - - 24 13 - - W 998,7 25 0 0,0
13.02.2020 15:00:00 5,6 2,2 - - 15 8 - - W 996,4 55 36 0,0
13.02.2020 14:00:00 5,8 3,1 - - 11 6 - - WNW 994,2 45 30 0,2
13.02.2020 13:00:00 5,7 3,7 - - 15 8 - - WNW 992,3 8 30 0,2

tt = temperature
td = dewpoint
tt -20cm = temperature -20cm
tt -100cm = temperature -100cm
ff = wind speed
fx = gusts
dd = wind direction
ppp = reduced air pressure
vv = visibility
sd = sunshine duration
rr = precipitation

Next stations